[[{"header":{"parameterUnit":"m.s-1","parameterCategory":1,"la1":30.2991,"la2":30.254,"lo1":-89.0895,"lo2":-89.0444,"dy":0.0017,"dx":0.0017,"nx":28,"ny":28,"refTime":"2025-07-20T03:00:00:Z","depth":0,"parameterNumber":2,"parameterNumberName":"U-component_of_WINDS"},"data":[0,0,0,0,0,0,0,0,0,0,0,0,0,0,0,0,0,0,0,0,0,0,0,0,0,0,0,0,0,0,0,0,0,0,0,0,0,0,0,0,0,0,0,0,0,0,0,0,0,0,0,0,0,0,0,0,0,0,4.9632,4.9634,0,4.9784,4.9785,4.9787,4.974,4.9737,4.9734,4.9731,4.9886,4.9893,4.99,0,0,0,0,0,0,0,0,0,0,0,0,0,4.93,4.9307,4.9632,4.9634,4.9636,4.9783,4.9785,4.9788,4.9741,4.9737,4.9733,4.9729,4.9884,4.9892,4.99,0,0,0,0,0,0,0,0,0,0,0,0,0,4.9447,4.9309,4.9631,4.963,4.9631,4.9783,4.9786,4.9788,4.9741,4.9737,4.9732,4.9727,4.9881,4.9891,4.9902,5.0064,0,0,4.9934,4.9939,0,0,0,0,0,0,0,0,4.9439,4.946,4.9628,4.963,4.9632,4.9738,4.9725,4.9881,4.9743,4.97,4.9731,4.9725,4.9841,4.9854,4.9893,5.0071,5.0078,4.9935,4.9942,4.9946,4.9949,0,0,0,0,0,0,0,4.9429,4.9453,4.9692,4.9631,4.9633,4.9621,4.9637,4.9755,4.9795,4.9703,4.97,4.9719,4.9841,4.9883,4.9897,5.008,4.9935,4.9944,4.9951,4.9955,5.0395,5.04,0,0,0,0,0,0,4.9418,4.9445,4.9687,4.9696,4.9522,4.9631,4.9649,4.9709,4.9794,4.9802,4.9723,4.9716,4.9867,4.9884,4.9902,5.0094,4.9946,4.9956,4.9962,5.039,5.0397,5.0402,0,0,0,0,0,0,4.9411,4.944,4.9681,4.957,4.96,4.9642,4.971,4.9714,4.9757,4.9809,4.9815,4.9758,4.9864,4.9887,5.0023,5.0099,4.9961,4.9971,5.0384,5.0392,5.0399,5.0482,0,0,0,0,0,0,4.9401,4.9438,4.95,4.9572,4.9606,4.98,4.9715,4.9721,4.9775,4.9768,4.9844,4.9852,4.9862,5.0007,5.0034,5.0111,4.9979,5.0377,5.0388,5.0397,5.0473,5.0492,5.0508,0,0,0,0,0,4.939,4.9518,4.9503,4.9533,4.9684,4.9805,4.9824,4.9833,4.9782,4.9844,4.9877,4.985,5.0087,5.0022,5.0051,5.0133,5.0372,5.0385,5.0396,5.0465,5.0488,5.0508,0,0,0,0,0,0,4.9453,4.9527,4.9512,4.9667,4.973,4.9796,4.9875,4.9858,4.9937,4.9927,4.9935,4.9952,5.0091,5.0127,5.0052,5.0293,5.0222,5.024,5.0264,5.0287,5.0304,5.0291,4.9988,0,0,0,0,0,4.9486,4.9577,4.9637,4.9768,4.98,4.9833,4.9885,4.9887,4.9952,4.9979,5.0022,5.0087,5.0175,5.0234,5.0319,5.0479,5.0493,5.0549,5.0567,5.0582,5.0596,5.068,5.0705,5.0441,5.0441,5.0441,0,0,4.9553,4.9604,4.9662,4.9782,4.9831,4.9924,4.9855,4.9958,5.0027,4.9994,5.0124,5.0159,5.0232,5.038,5.0447,5.0413,5.0673,5.0597,5.0608,5.0615,5.0695,5.072,5.0742,5.0449,5.0448,5.0447,0,0,4.9721,4.9771,4.9884,4.9935,5.001,5.0031,5.0058,5.0128,5.0149,5.028,5.0257,5.034,5.0494,5.0545,5.0592,5.0781,5.0757,5.0809,5.09,5.0982,5.1002,5.1021,5.1084,5.1108,5.0824,5.0824,5.0824,0,4.9795,4.9935,4.9944,5.0049,5.0101,5.0077,5.019,5.0239,5.0338,5.0374,5.0335,5.0526,5.0574,5.0732,5.0778,5.0818,5.0847,5.0798,5.0999,5.1017,5.1035,5.1095,5.112,5.0829,5.0829,5.0828,5.0828,0,5.002,5.0118,5.0201,5.0296,5.0358,5.0467,5.0492,5.0554,5.0551,5.0575,5.0708,5.0764,5.0859,5.0898,5.0896,5.1056,5.1031,5.0996,5.0924,5.1065,5.1122,5.1146,5.0837,5.0835,5.0834,5.0832,0,0,5.0231,5.033,5.036,5.0402,5.0483,5.0559,5.0666,5.0759,5.081,5.088,5.0968,5.1099,5.1066,5.1119,5.1123,5.1196,5.1338,5.1151,5.1153,5.118,5.1513,5.1536,5.1563,5.1324,5.1329,5.1333,5.1505,0,5.0404,5.0591,5.0603,5.0772,5.0861,5.084,5.0933,5.0992,5.1019,5.1098,5.1127,5.1218,5.117,5.1201,5.1272,5.1305,5.1404,5.1294,5.1404,5.1408,5.1382,5.1593,5.1618,5.1779,5.1528,5.1532,5.1535,0,5.063,5.0705,5.0883,5.095,5.0988,5.1072,5.1156,5.1233,5.13,5.1314,5.1373,5.1367,5.1475,5.1403,5.1552,5.1476,5.1523,5.1546,5.1552,5.1559,5.1477,5.1602,5.1831,5.1853,5.1571,5.1568,5.1566,0,5.076,5.0907,5.1032,5.1069,5.1152,5.121,5.1247,5.131,5.1364,5.1439,5.1473,5.156,5.1607,5.1674,5.169,5.1637,5.1838,5.1767,5.185,5.1849,5.189,5.1886,5.2124,5.1927,5.1927,5.1926,5.1926,0,5.0949,5.1058,5.1091,5.1168,5.1289,5.1301,5.1421,5.1454,5.151,5.1591,5.158,5.1656,5.1676,5.1756,5.1771,5.189,5.1912,5.1925,5.1926,5.1923,5.1921,5.195,5.1938,5.1933,5.1931,5.193,5.1929,0,5.1114,5.1141,5.1275,5.1342,5.1362,5.1447,5.1504,5.1577,5.1603,5.1706,5.1731,5.1771,5.1864,5.1889,5.2002,5.2011,5.215,5.2144,5.2127,5.2125,5.2205,5.2195,5.2467,5.2501,5.2286,5.2288,5.2289,0,5.123,5.1313,5.1389,5.1443,5.1482,5.157,5.1625,5.1641,5.1698,5.1781,5.1843,5.1936,5.201,5.2161,5.2199,5.2285,5.2278,5.2367,5.229,5.2284,5.2274,5.2267,5.2273,5.238,5.2382,5.2384,5.2386,0,5.1433,5.1442,5.1522,5.1607,5.1673,5.174,5.1805,5.185,5.1875,5.194,5.2036,5.2094,5.2208,5.2299,5.2386,5.2423,5.2408,5.241,5.2433,5.2428,5.2413,5.2418,5.2162,5.2403,5.2401,5.24,5.2399,5.2398,5.1574,5.1646,5.171,5.1799,5.1849,5.191,5.1981,5.2015,5.2095,5.2189,5.2194,5.2297,5.2361,5.2475,5.2518,5.2598,5.2571,5.2605,5.2613,5.262,5.2624,5.2405,5.2615,5.2614,5.2614,5.2613,5.2613,0,5.1772,5.1813,5.1895,5.1985,5.2055,5.2036,5.2107,5.2166,5.2256,5.2318,5.2391,5.25,5.2588,5.2634,5.2721,5.2776,5.2771,5.2798,5.2792,5.28,5.2646,5.2615,5.28,5.28,5.28,5.28,5.28,5.28,5.1883,5.2003,5.202,5.2163,5.2203,5.2303,5.2345,5.24,5.2448,5.257,5.2643,5.2673,5.2727,5.2818,5.2898,5.2909,5.294,5.2969,5.2976,5.2831,5.2811,5.2793,5.2764,5.2977,5.2977,5.3123,5.3124,5.3125]},{"header":{"parameterUnit":"m.s-1","parameterCategory":1,"la1":30.2991,"la2":30.254,"lo1":-89.0895,"lo2":-89.0444,"dy":0.0017,"dx":0.0017,"nx":28,"ny":28,"refTime":"2025-07-20T03:00:00:Z","depth":0,"parameterNumber":3,"parameterNumberName":"V-component_of_WINDS"},"data":[0,0,0,0,0,0,0,0,0,0,0,0,0,0,0,0,0,0,0,0,0,0,0,0,0,0,0,0,0,0,0,0,0,0,0,0,0,0,0,0,0,0,0,0,0,0,0,0,0,0,0,0,0,0,0,0,0,0,2.112,2.112,0,2.1143,2.1143,2.1143,2.1107,2.1106,2.1104,2.1103,2.1127,2.1128,2.113,0,0,0,0,0,0,0,0,0,0,0,0,0,2.1045,2.1046,2.112,2.112,2.1121,2.1143,2.1143,2.1143,2.1107,2.1105,2.1104,2.1103,2.1126,2.1128,2.113,0,0,0,0,0,0,0,0,0,0,0,0,0,2.1073,2.1047,2.112,2.1105,2.1104,2.1143,2.1143,2.1143,2.1107,2.1105,2.1104,2.1102,2.1125,2.1128,2.113,2.1185,0,0,2.1139,2.114,0,0,0,0,0,0,0,0,2.1072,2.1076,2.1107,2.1106,2.1105,2.112,2.1125,2.1157,2.1108,2.1106,2.1103,2.1101,2.1126,2.1128,2.1137,2.1186,2.1187,2.1139,2.1141,2.1142,2.1142,0,0,0,0,0,0,0,2.107,2.1075,2.1129,2.1108,2.1106,2.1097,2.1099,2.1131,2.1126,2.1106,2.1104,2.1107,2.1125,2.1134,2.1137,2.1187,2.1139,2.1141,2.1143,2.1144,2.1279,2.1281,0,0,0,0,0,0,2.107,2.1074,2.1128,2.113,2.1083,2.11,2.1102,2.1117,2.1126,2.1125,2.1108,2.1105,2.1131,2.1134,2.1138,2.12,2.1142,2.1144,2.1146,2.1277,2.128,2.1282,0,0,0,0,0,0,2.1068,2.1075,2.1127,2.1101,2.1107,2.1103,2.112,2.1119,2.1128,2.1127,2.1126,2.1119,2.1129,2.1134,2.1173,2.1201,2.1145,2.1148,2.1275,2.1278,2.1281,2.1327,0,0,0,0,0,0,2.1066,2.1075,2.1096,2.1102,2.1108,2.1163,2.1122,2.112,2.1132,2.1128,2.1137,2.1136,2.1128,2.1169,2.1175,2.1204,2.115,2.1273,2.1276,2.128,2.1323,2.1332,2.1339,0,0,0,0,0,2.1064,2.1108,2.1097,2.1104,2.1135,2.1164,2.1168,2.1158,2.1135,2.1156,2.1155,2.1136,2.1197,2.1173,2.118,2.121,2.1271,2.1275,2.128,2.132,2.133,2.1338,0,0,0,0,0,0,2.1106,2.1109,2.1096,2.1144,2.1154,2.1158,2.1184,2.1169,2.1186,2.1181,2.1167,2.1169,2.1211,2.1214,2.1188,2.1261,2.123,2.1236,2.1258,2.1268,2.1275,2.1273,2.1152,0,0,0,0,0,2.1121,2.1145,2.1146,2.1188,2.1194,2.1188,2.1201,2.1191,2.1201,2.1205,2.1208,2.1218,2.1239,2.1253,2.1273,2.1323,2.1324,2.1347,2.1354,2.1361,2.1366,2.1392,2.1401,2.1297,2.1297,2.1297,0,0,2.1153,2.1157,2.1173,2.1197,2.1204,2.1228,2.1192,2.122,2.1238,2.121,2.1246,2.1248,2.1259,2.1303,2.1323,2.1307,2.1395,2.1366,2.1371,2.1373,2.1397,2.1407,2.1416,2.13,2.1299,2.1299,0,0,2.1222,2.1228,2.1263,2.127,2.128,2.1276,2.1284,2.129,2.129,2.1326,2.1305,2.1326,2.1363,2.1371,2.138,2.145,2.1433,2.1456,2.1497,2.1522,2.153,2.1537,2.1561,2.157,2.1462,2.1462,2.1462,0,2.126,2.1296,2.1283,2.1312,2.1323,2.1297,2.1332,2.134,2.1356,2.1364,2.1346,2.139,2.1396,2.1441,2.1458,2.1466,2.1474,2.1456,2.153,2.1537,2.1543,2.1566,2.1576,2.1465,2.1464,2.1464,2.1464,0,2.1342,2.1367,2.1394,2.1409,2.1423,2.1455,2.1446,2.1461,2.145,2.1448,2.1484,2.1489,2.1508,2.1518,2.1509,2.1562,2.1552,2.1532,2.15,2.1556,2.1578,2.1586,2.1469,2.1468,2.1467,2.1466,0,0,2.144,2.1446,2.1456,2.1462,2.1471,2.149,2.152,2.1538,2.1551,2.1563,2.1587,2.1618,2.1599,2.1609,2.16,2.1622,2.1676,2.1599,2.1599,2.1613,2.1734,2.1748,2.1759,2.1664,2.1666,2.1667,2.1733,0,2.1509,2.156,2.1549,2.16,2.1622,2.1597,2.1623,2.1631,2.1629,2.1647,2.1644,2.1666,2.164,2.1646,2.1667,2.1665,2.17,2.166,2.1686,2.1688,2.1685,2.177,2.1786,2.1848,2.1741,2.1742,2.1743,0,2.1596,2.161,2.1663,2.1666,2.1675,2.1699,2.1713,2.1732,2.1739,2.1736,2.1746,2.1732,2.1761,2.1728,2.1767,2.174,2.175,2.1751,2.1753,2.1755,2.1719,2.1774,2.1868,2.1877,2.1757,2.1756,2.1755,0,2.1662,2.1694,2.1729,2.1735,2.174,2.1756,2.1759,2.1765,2.1776,2.1789,2.1796,2.1812,2.1821,2.1834,2.1824,2.1801,2.1865,2.1832,2.1862,2.1863,2.1877,2.1876,2.1973,2.1884,2.1884,2.1884,2.1883,0,2.174,2.1773,2.1758,2.178,2.1816,2.1802,2.1838,2.1837,2.1842,2.1863,2.1843,2.1863,2.1848,2.1867,2.1859,2.1892,2.1897,2.1894,2.1892,2.1896,2.1896,2.1903,2.1898,2.1886,2.1886,2.1885,2.1885,0,2.1819,2.1811,2.1848,2.1848,2.1849,2.1876,2.1876,2.1896,2.1891,2.1918,2.1923,2.1916,2.1937,2.1928,2.195,2.1945,2.1987,2.1979,2.1985,2.1982,2.2014,2.2011,2.2118,2.213,2.2033,2.2034,2.2035,0,2.187,2.1894,2.1897,2.1909,2.1913,2.1933,2.1944,2.193,2.1943,2.1952,2.1971,2.1989,2.2003,2.2037,2.2034,2.205,2.2043,2.2079,2.2045,2.2048,2.2042,2.2041,2.2043,2.2086,2.2087,2.2088,2.2088,0,2.1959,2.1953,2.197,2.1985,2.1998,2.2009,2.2018,2.2029,2.2015,2.203,2.205,2.2061,2.2083,2.2102,2.2116,2.2118,2.2101,2.2099,2.2107,2.2112,2.2113,2.2112,2.2003,2.2097,2.2096,2.2095,2.2095,2.2095,2.2026,2.2046,2.205,2.2069,2.2074,2.2083,2.2101,2.2098,2.2115,2.2131,2.2121,2.2145,2.215,2.2167,2.2172,2.219,2.2175,2.2187,2.219,2.2193,2.2197,2.211,2.2192,2.2192,2.2192,2.2192,2.2191,0,2.2114,2.2115,2.2132,2.2145,2.2159,2.2141,2.215,2.2163,2.2184,2.219,2.2204,2.2227,2.2244,2.2242,2.2257,2.2272,2.2265,2.2277,2.2275,2.2276,2.2209,2.22,2.2282,2.2282,2.2282,2.2282,2.2282,2.2282,2.2161,2.2194,2.2188,2.2223,2.2224,2.2247,2.2253,2.2261,2.2265,2.2291,2.2305,2.2303,2.2306,2.2321,2.2336,2.2335,2.2341,2.2356,2.2352,2.229,2.2281,2.2272,2.2264,2.2358,2.2358,2.2418,2.2418,2.2419]}]]